Regional Weather Roundup
Issued by NWS

Home | Current Version | Previous Version | Text Only | Print | Product List | Glossary Off
Versions: 1 2 3 4 5 6 7 8 9 10 11 12 13 14 15 16 17 18 19 20 21 22 23 24 25 26 27 28 29 30 31 32 33 34 35 36 37 38 39 40 41 42 43 44 45 46 47 48 49

000
ASUS45 KSLC 300810
RWRUT

UTAH REGIONAL WEATHER ROUNDUP
NATIONAL WEATHER SERVICE SALT LAKE CITY UT
200 AM MDT TUE JUN 30 2015

UTZ001>011-023>025-300900-

NORTHERN UTAH

CITY           SKY/WX    TMP DP  RH WIND       PRES   REMARKS
BRIGHAM CITY   MOCLDY    82  47  29 CALM      30.05F
HILL AFB       MOCLDY    80  50  34 NE5       30.08S
LOGAN          CLEAR     71  59  65 SW12      30.09S
OGDEN          PTCLDY    79  51  37 CALM      30.05R
PROVO AIRPORT  MOCLDY    73  52  46 SE9       30.07S
SALT LAKE CITY MOCLDY    84  53  34 SE7       30.01S
VERNAL         MOCLDY    74  44  34 W7        30.13F
WENDOVER       MOCLDY    88  45  22 W7        30.05S
HEBER CITY     MOCLDY    63  50  63 CALM      30.18S
WEST JORDAN    CLEAR     81  46  30 CALM      30.07R

$$

UTZ012>022-026-027-300900-

SOUTHERN/CENTRAL UTAH

CITY           SKY/WX    TMP DP  RH WIND       PRES   REMARKS
BLANDING       PTCLDY    70  41  34 NE6       30.25R
BRYCE CANYON   PTCLDY    59  44  57 CALM      30.39R
CEDAR CITY     PTCLDY    74  45  35 SE8       30.21F
DELTA          MOCLDY    77  40  26 S6        30.10R
HANKSVILLE     PTCLDY    73  37  27 CALM      30.05S
MILFORD        PTCLDY    75  47  36 SW12      30.13S
MOAB/CYNLANDS  CLEAR     80  41  24 CALM      30.02S
PRICE          PTCLDY    70  38  31 NE7       30.17F
ST GEORGE      PTSUNNY   90  50  25 SE8       29.97R
KANAB          MOCLDY    70  54  56 CALM      30.21S

$$

REGIONAL REPORTS     COLORADO/ARIZONA

CITY           SKY/WX    TMP DP  RH WIND       PRES   REMARKS
CRAIG, CO      PTCLDY    56  46  69 CALM      30.24S
GRAND JUNCTION PTCLDY    71  45  39 SE5       30.08S
RIFLE          PTCLDY    67  42  40 CALM      30.17S
MONTROSE       CLEAR     68  46  45 CALM      30.20R
CORTEZ         CLEAR     61  48  62 VRB6      30.21S
PAGE, AZ       PTCLDY    85  49  28 W7        30.07R
GRAND CANYON   MOCLDY    56  53  90 NE3       30.30F
KINGMAN        LGT RAIN  76  57  51 S18G30    30.09F
FLAGSTAFF      CLOUDY    65  49  56 VRB3      30.33S

$$

REGIONAL REPORTS    NEVADA/IDAHO/WYOMING

CITY           SKY/WX    TMP DP  RH WIND       PRES   REMARKS
LAS VEGAS, NV  MOCLDY    97  49  19 S9        29.85R HX  94
ELY            MOCLDY    75  46  35 S21       30.24F
ELKO           MOCLDY    75  50  41 CALM      30.16S
POCATELLO, ID  CLEAR     70  61  73 SW6       30.14R
BURLEY         CLOUDY    72  55  55 SE5       30.07S
EVANSTON, WY   CLOUDY    69  43  38 SW5       30.29S
ROCK SPRINGS   CLOUDY    70  38  31 SE6       30.27R
KEMMERER       MOCLDY    61  43  51 N12       30.31F

$$


USA.gov is the U.S. government's official web portal to all federal, state and local government web resources and services.